This is the latest recevied weather packets stored in our database for station/object W4OTS. If no packets are shown the sender has not sent any weather packets the latest 10 day(s).
| Time | Temp. | Humidity | Pressure | Rain* | Wind** | Luminosity | Snow |
|---|---|---|---|---|---|---|---|
| 1777933338 | 23.33° C | 40% | 1015.2 hPa | 0 mm | - | 34 W/m² | - |
| 1777933035 | 23.33° C | 40% | 1015.3 hPa | 0 mm | - | 36 W/m² | - |
| 1777932732 | 23.33° C | 40% | 1015.5 hPa | 0 mm | - | 35 W/m² | - |
| 1777932428 | 23.33° C | 39% | 1015.4 hPa | 0 mm | - | 32 W/m² | - |
| 1777932126 | 23.89° C | 40% | 1015.5 hPa | 0 mm | - | 32 W/m² | - |
| 1777931822 | 23.89° C | 40% | 1015.4 hPa | 0 mm | - | 35 W/m² | - |
| 1777931520 | 23.89° C | 38% | 1015.4 hPa | 0 mm | - | 35 W/m² | - |
| 1777931215 | 23.89° C | 39% | 1015.5 hPa | 0 mm | - | 39 W/m² | - |
| 1777930912 | 23.89° C | 41% | 1015.4 hPa | 0 mm | - | 47 W/m² | - |
| 1777930609 | 23.89° C | 41% | 1015.4 hPa | 0 mm | - | 41 W/m² | - |
| 1777930305 | 23.89° C | 40% | 1015.4 hPa | 0 mm | - | 40 W/m² | - |
| 1777930002 | 23.89° C | 41% | 1015.4 hPa | 0 mm | - | 38 W/m² | - |
| 1777929698 | 23.89° C | 40% | 1015.6 hPa | 0 mm | - | 37 W/m² | - |
| 1777929396 | 23.89° C | 40% | 1015.5 hPa | 0 mm | - | 43 W/m² | - |
| 1777929092 | 23.89° C | 39% | 1015.6 hPa | 0 mm | - | 115 W/m² | - |
| 1777928790 | 23.89° C | 39% | 1015.5 hPa | 0 mm | - | 37 W/m² | - |
| 1777928486 | 23.89° C | 39% | 1015.6 hPa | 0 mm | - | 36 W/m² | - |
| 1777928184 | 23.89° C | 38% | 1015.7 hPa | 0 mm | - | 38 W/m² | - |
| 1777927881 | 23.89° C | 38% | 1015.7 hPa | 0 mm | - | 50 W/m² | - |
| 1777927580 | 23.89° C | 39% | 1015.7 hPa | 0 mm | - | 39 W/m² | - |
| 1777927278 | 23.89° C | 39% | 1015.8 hPa | 0 mm | - | 41 W/m² | - |
| 1777926976 | 23.89° C | 38% | 1016 hPa | 0 mm | - | 42 W/m² | - |
| 1777926674 | 23.89° C | 40% | 1015.7 hPa | 0 mm | - | 43 W/m² | - |
| 1777926368 | 23.89° C | 39% | 1016 hPa | 0 mm | - | 43 W/m² | - |
| 1777926066 | 23.89° C | 38% | 1016 hPa | 0 mm | - | 45 W/m² | - |
* Rain latest hour (hover to see other rain measurements)
** Current wind speed in m/s (hover to see current wind gust speed)